Weather History for Glendale Luke AFB, AZ

Change the Weather History Date:

Friday, September 20, 2013

  Actual Average Record
Temperature  
Mean Temperature 86 °F -  
Max Temperature 103 °F 99 °F 109 °F (1962)
Min Temperature 69 °F 62 °F 46 °F (1978)
Cooling Degree Days 21    
Growing Degree Days 36 (Base 50)    
Moisture  
Dew Point 44 °F    
Average Humidity 23    
Maximum Humidity 31    
Minimum Humidity 12    
Precipitation  
Precipitation 0.00 in - - ()
Sea Level Pressure  
Sea Level Pressure 29.71 in    
Wind  
Wind Speed 6 mph (WNW)    
Max Wind Speed 13 mph    
Max Gust Speed -    
Visibility 9 miles    
Events      
Averages and records for this station are not official NWS values.
T = Trace of Precipitation, MM = Missing Value Source: NWS Daily Summary

Daily Weather History Graph

Daily Weather History Graph

Search for Another Location

Airport:

Trip Planner

Search our weather history database for the weather conditions in past years. The results will help you decide how hot, cold, wet, or windy it might be!

Date:

Astronomy

Sep. 20, 2013 Rise Set
Actual Time 6:16 AM MST 6:28 PM MST
Civil Twilight 5:51 AM MST 6:53 PM MST
Nautical Twilight 5:22 AM MST 7:22 PM MST
Astronomical Twilight 4:53 AM MST 7:51 PM MST
Moon 7:11 PM MST (9/20) 7:29 AM MST (9/20)
Length of Visible Light 13h 01m
Length of Day
12h 12m
Full, 98% of the Moon is Illuminated
Sep 20
Full
Sep 26
Last Quarter
Oct 4
New
Oct 11
First Quarter
Oct 18
Full

Hourly Weather History & Observations

Time (MST) Temp. Dew Point Humidity Pressure Visibility Wind Dir Wind Speed Gust Speed Precip Events Conditions
12:58 AM 74.1 °F 33.8 °F 23% 29.69 in 10.0 mi NNW 11.5 mph - N/A   Clear
1:58 AM 72.3 °F 36.5 °F 27% 29.70 in 10.0 mi NNW 9.2 mph - N/A   Clear
2:58 AM 72.5 °F 35.8 °F 26% 29.69 in 10.0 mi NNE 2.3 mph - N/A   Clear
3:58 AM 71.4 °F 38.5 °F 30% 29.70 in 10.0 mi North 4.6 mph - N/A   Clear
4:58 AM 70.0 °F 37.4 °F 30% 29.71 in 10.0 mi North 5.8 mph - N/A   Clear
5:58 AM 69.1 °F 37.2 °F 31% 29.72 in 10.0 mi Calm Calm - N/A   Clear
6:58 AM 71.1 °F 37.6 °F 29% 29.79 in 10.0 mi North 4.6 mph - N/A   Clear
7:58 AM 76.6 °F 43.2 °F 30% 29.79 in 10.0 mi NNW 6.9 mph - N/A   Clear
8:58 AM 84.7 °F 42.8 °F 23% 29.81 in 9.0 mi North 3.5 mph - N/A   Partly Cloudy
9:58 AM 88.2 °F 44.2 °F 22% 29.81 in 10.0 mi NNW 2.3 mph - N/A   Partly Cloudy
10:58 AM 92.1 °F 43.3 °F 18% 29.76 in 10.0 mi Calm Calm - N/A   Clear
11:58 AM 95.4 °F 42.1 °F 16% 29.74 in 10.0 mi WSW 2.3 mph - N/A   Clear
12:58 PM 98.6 °F 43.5 °F 15% 29.72 in 10.0 mi Variable 1.2 mph - N/A   Clear
1:58 PM 100.6 °F 40.8 °F 13% 29.70 in 10.0 mi Variable 5.8 mph - N/A   Clear
2:58 PM 101.8 °F 39.6 °F 12% 29.68 in 10.0 mi WSW 10.4 mph - N/A   Clear
3:58 PM 103.1 °F 42.1 °F 12% 29.66 in 10.0 mi South 10.4 mph - N/A   Clear
4:58 PM 102.0 °F 46.2 °F 15% 29.65 in 10.0 mi SW 12.7 mph - N/A   Clear
5:58 PM 100.2 °F 45.5 °F 16% 29.65 in 10.0 mi WSW 8.1 mph - N/A   Clear
6:58 PM 94.8 °F 48.4 °F 20% 29.66 in 10.0 mi West 5.8 mph - N/A   Clear
7:18 PM 93.2 °F 50.0 °F 23% 29.71 in 1.0 mi West 6.9 mph - N/A   Haze
7:28 PM 91.4 °F 50.0 °F 24% 29.71 in 1.5 mi West 8.1 mph - N/A   Haze
7:38 PM 91.4 °F 48.2 °F 23% 29.72 in 10.0 mi West 8.1 mph - N/A   Clear
7:58 PM 91.6 °F 50.4 °F 24% 29.68 in 10.0 mi West 6.9 mph - N/A   Clear
8:58 PM 88.5 °F 51.3 °F 28% 29.70 in 10.0 mi WNW 2.3 mph - N/A   Clear
9:58 PM 89.4 °F 50.9 °F 27% 29.71 in 10.0 mi Calm Calm - N/A   Clear
10:58 PM 86.2 °F 52.0 °F 31% 29.71 in 10.0 mi SSW 8.1 mph - N/A   Clear
11:58 PM 86.0 °F 51.8 °F 31% 29.72 in 10.0 mi SSW 10.4 mph - N/A   Clear